Tracking 29790 objects as of 12-Oct-2024
HD Live streaming from Space Station
objects crossing your sky now

STARLINK-1109

Track STARLINK-1109 now!
10-day predictions
STARLINK-1109 is classified as:


NORAD ID: 44945
Int'l Code: 2020-001AH
Perigee: 553.3 km
Apogee: 555.3 km
Inclination: 53.1 °
Period: 95.6 minutes
Semi major axis: 6925 km
RCS: Unknown
Launch date: January 7, 2020
Source: United States (US)
Launch site: AIR FORCE EASTERN TEST RANGE (AFETR)
Your satellite tracking list
Your tracking list is empty




NASA's NSSDC Master Catalog

Two Line Element Set (TLE):
1 44945U 20001AH  24285.52197130  .00010444  00000-0  71892-3 0  9991
2 44945  53.0530 114.8043 0001442  93.0560 267.0594 15.06403765262627
Source of the keplerian elements: AFSPC